User: anonymous   Login
Location: Unspecified
(0.0000°N, 0.0000°E)
Time: 04:57:46
(UTC+00:00)
Language:

Nadezhda 2 - Orbit

View from above orbital plane
View from above orbital plane
View from above satellite
View from above satellite

Ground track
Ground track

The orbit data is extracted from the following two-line orbital elements,

1 20508U 90017A   18267.38557375 +.00000031 +00000-0 +16946-4 0  9993
2 20508 082.9599 358.9648 0044732 029.8518 038.9730 13.74264406432641
Epoch (UTC): 24 September 2018 09:15:13
Eccentricity: 0.0044732
inclination: 82.9599°
perigee height: 951 km
apogee height: 1017 km
right ascension of ascending node: 358.9648°
argument of perigee: 29.8518°
revolutions per day: 13.74264406
mean anomaly at epoch: 38.9730°
orbit number at epoch: 43264

The dashed part of the orbit path shows where the satellite is in the earth's shadow,  

DLR